EHI
72 78 87 83 53 16 1 0 0 0 0 0 0 1 1 1 1 0 1 5 10 10 5 1 0 0 0 0 0 0 0 0 0 0 0 0 0 0 0 0 0 0 0 0 1 2 2 1 0
74 81 85 69 34 8 0 0 0 0 0 0 0 1 1 1 1 1 2 5 8 8 7 4 2 0 0 0 0 0 0 0 0 0 0 0 0 0 0 0 1 1 0 0 0 1 1 0 0
78 80 73 45 14 1 0 0 0 0 0 0 0 1 1 1 2 2 2 4 6 10 14 12 5 0 0 0 0 0 0 0 0 0 0 0 0 0 0 1 2 2 1 0 0 0 0 0 0
74 66 45 19 4 0 0 0 0 0 0 0 0 0 0 1 2 3 3 3 6 14 21 16 7 1 0 0 0 0 0 0 0 0 0 0 0 0 1 2 3 3 1 0 0 0 0 0 0
57 39 17 4 0 0 1 1 1 1 0 0 0 0 0 2 3 3 3 2 5 14 19 14 6 2 0 0 0 0 0 0 0 0 0 0 0 0 1 2 2 2 1 0 0 0 0 0 0
31 18 4 0 1 1 2 3 4 4 3 1 1 1 0 2 3 3 2 1 3 10 15 12 6 2 0 0 0 0 0 0 0 0 0 0 0 0 0 1 1 1 1 0 0 0 0 0 0
12 6 1 0 1 2 3 5 7 8 6 4 3 1 0 1 2 3 3 2 3 7 11 11 7 4 2 1 1 0 0 0 0 0 0 0 0 0 0 0 0 0 0 0 0 0 0 0 0
3 1 0 0 1 1 3 6 9 9 7 5 4 2 1 1 3 5 6 5 5 6 7 7 6 5 5 5 4 2 1 1 1 1 0 0 0 0 0 0 0 0 0 0 0 0 0 0 0
0 0 0 1 2 5 7 8 9 9 8 6 5 4 4 4 5 6 7 8 9 8 6 5 4 5 6 7 7 5 4 4 3 2 1 1 0 0 0 3 4 2 0 0 0 0 0 0 0
0 1 2 3 6 10 11 9 9 11 9 7 8 8 8 9 8 7 6 9 10 9 6 4 3 3 4 6 8 6 5 8 6 3 3 3 1 0 1 5 7 3 0 0 0 0 0 0 0
2 4 5 5 9 12 10 8 9 10 9 7 8 8 9 9 8 6 6 8 9 7 5 4 3 2 2 3 5 5 5 7 6 4 4 4 3 1 2 5 6 3 0 0 0 0 0 0 0
6 7 8 9 11 12 9 7 7 7 7 6 6 5 5 5 3 2 3 4 5 3 2 2 1 1 2 3 3 4 5 5 4 3 2 3 4 3 2 3 4 2 1 0 0 0 0 0 0
9 8 9 10 11 10 8 6 5 6 6 6 5 3 2 1 1 1 1 2 2 2 1 0 0 1 2 3 3 4 4 4 2 1 1 1 3 3 3 2 3 2 1 0 0 0 0 0 0
8 7 6 7 7 6 5 4 4 5 6 6 5 4 3 2 2 2 2 2 2 2 1 1 1 1 1 1 2 2 3 2 1 1 1 1 2 3 3 3 3 3 1 0 0 0 0 0 0
5 4 3 3 2 2 2 1 2 4 5 4 3 3 2 2 2 2 1 1 1 1 1 1 2 2 1 1 1 1 1 0 0 2 3 3 3 4 3 3 3 3 2 1 1 0 0 0 0
2 1 1 1 1 0 0 1 2 2 2 1 1 1 1 1 1 1 0 0 0 0 0 1 1 1 1 1 1 0 0 0 0 2 4 4 4 5 5 4 3 3 3 3 2 1 0 0 0
0 0 0 0 0 0 0 0 1 1 0 0 0 0 0 0 0 0 0 0 0 0 0 0 0 0 0 1 1 0 0 0 0 1 3 3 4 7 8 7 5 5 4 4 3 2 1 0 0
0 0 0 0 0 0 0 0 0 0 0 0 0 0 0 0 0 0 0 0 0 0 0 0 0 0 0 0 0 0 0 0 0 0 1 1 3 6 8 8 7 5 4 5 5 4 2 1 1
0 0 0 0 0 0 0 0 0 0 0 0 0 0 0 0 0 0 0 0 0 0 0 0 0 0 0 0 0 0 0 0 0 0 0 0 1 3 4 5 5 4 4 6 6 4 2 3 3
0 0 0 0 0 0 1 0 0 0 0 0 0 0 0 0 0 0 0 0 0 0 0 0 0 0 0 0 0 0 0 0 0 0 0 0 1 2 2 4 5 3 4 7 8 5 3 3 3
0 0 0 0 0 0 0 0 0 0 0 0 0 0 0 0 0 0 0 0 0 0 0 0 0 0 0 0 0 0 0 0 0 0 0 0 1 3 3 5 6 5 4 7 8 6 4 3 2
0 0 0 0 0 0 0 0 0 0 0 0 0 0 0 0 0 0 0 0 0 0 0 0 0 0 0 0 0 0 0 0 0 0 0 0 1 3 4 5 6 5 5 7 8 7 6 3 1
0 0 0 0 0 0 0 0 0 0 0 0 0 0 0 0 0 0 0 0 0 0 0 0 0 0 0 0 0 0 0 0 0 0 0 0 1 2 2 3 3 4 5 7 8 8 7 3 1
0 0 0 0 0 0 0 0 0 0 0 0 0 0 0 0 0 0 0 0 0 0 0 0 0 0 0 0 0 0 0 0 0 0 0 0 0 1 1 1 1 2 3 5 7 9 7 2 0
0 0 0 0 0 0 0 0 0 0 0 0 0 0 0 0 0 0 0 0 0 0 0 0 0 0 0 0 0 0 0 0 0 0 0 0 0 0 0 0 0 0 1 3 5 6 4 1 1
0 0 0 0 0 0 0 0 0 0 0 0 0 0 0 0 0 0 0 0 0 0 0 0 0 0 0 0 0 0 0 0 0 0 0 0 0 0 0 0 0 0 0 1 2 2 1 1 1
0 0 0 0 0 0 0 0 0 0 0 0 0 0 0 0 0 0 0 0 0 0 0 0 0 0 0 0 0 0 0 0 0 0 0 0 0 0 0 0 0 0 0 0 0 0 0 0 1
0 0 0 0 0 0 0 0 0 0 0 0 0 0 0 0 0 0 0 0 0 0 0 0 0 0 0 0 0 0 0 0 0 0 0 0 0 0 0 0 0 1 1 0 0 0 0 1 2
0 0 0 0 0 0 0 0 0 0 0 0 0 0 0 0 0 0 0 0 0 0 0 0 0 0 0 0 0 0 0 0 0 0 0 1 0 0 0 1 1 1 1 0 0 0 1 2 2
0 0 0 0 0 0 0 0 0 0 0 0 0 0 0 0 0 0 0 0 0 0 0 0 0 0 0 0 0 0 0 0 0 0 0 1 0 0 1 2 2 1 1 0 0 1 2 2 2
Wind_Speed
8 9 6 3 3 1 11 10 10 8 9 10 10 11 16 15 10 9 3 9 16 15 13 11 11 10 9 8 8 7 7 7 6 6 5 5 4 4 4 3 3 4 4 3 3 4 4 4 4
8 7 4 3 1 7 9 8 10 10 9 9 11 14 16 15 13 9 5 10 15 15 12 12 11 9 8 8 7 6 6 6 5 5 4 4 4 3 3 3 3 3 3 3 3 3 4 4 4
11 7 4 2 6 8 9 8 9 11 10 10 12 14 11 9 10 7 8 10 13 13 12 13 11 9 8 7 6 6 5 5 4 4 4 3 3 3 2 2 3 3 3 3 3 3 3 3 3
6 3 3 2 11 10 9 8 9 11 12 13 12 12 11 10 8 10 9 10 12 12 13 12 10 9 7 6 6 5 5 4 4 3 3 3 2 2 2 2 2 2 3 3 3 3 2 2 2
4 1 2 6 11 11 11 11 11 12 14 15 15 15 12 11 11 10 7 9 10 11 12 12 11 9 7 6 6 6 5 5 4 4 3 3 3 2 2 2 2 3 3 3 2 2 1 1 1
2 1 2 4 10 10 11 12 12 14 14 13 13 14 10 10 8 6 7 6 8 10 10 11 11 10 9 8 7 6 6 6 5 5 4 4 4 3 3 3 3 2 2 2 2 1 1 1 0
3 1 1 6 8 9 11 13 14 14 15 14 10 11 8 9 6 5 5 5 6 8 8 9 9 9 10 9 8 8 7 7 7 6 6 6 5 5 5 4 4 3 3 3 2 2 2 2 2
3 2 4 5 6 8 11 13 13 14 14 13 12 9 6 6 6 7 7 7 6 6 5 4 5 6 8 9 11 10 9 9 8 8 8 8 7 8 8 7 7 6 5 4 4 3 3 4 4
3 3 3 3 5 7 11 11 11 14 15 16 15 12 7 7 9 10 9 9 8 8 6 5 3 1 2 6 9 10 10 10 9 8 11 9 6 7 8 10 10 9 8 7 6 5 6 6 7
2 4 4 7 10 11 13 13 8 11 14 13 13 13 11 10 11 11 10 10 10 9 8 7 6 5 3 2 2 4 6 6 7 6 7 6 6 5 7 10 13 12 10 9 8 8 8 7 5
6 6 6 9 10 10 10 12 14 10 10 10 10 11 10 11 10 10 9 8 7 6 8 8 7 6 4 2 0 1 1 2 5 6 6 6 5 3 4 5 7 8 9 6 7 7 6 7 6
8 9 8 10 10 10 10 9 11 13 7 7 8 8 9 10 9 8 7 7 6 6 7 7 7 6 5 3 2 1 1 2 2 4 5 5 3 3 3 4 6 6 5 6 6 6 8 9 8
10 9 12 13 14 15 15 13 10 9 6 7 7 8 9 9 8 7 7 7 7 7 7 7 7 7 6 4 2 2 2 2 3 2 3 4 4 4 4 3 3 4 5 6 5 6 6 6 5
11 11 11 10 11 10 13 10 8 6 4 6 7 8 8 8 8 9 9 9 9 9 8 6 7 6 6 5 3 3 2 2 2 3 4 5 3 4 4 4 3 3 3 3 5 5 4 3 2
12 11 9 7 8 9 7 10 8 5 4 6 7 7 6 7 8 9 9 8 8 8 8 7 6 6 6 6 5 4 3 3 3 3 4 5 4 4 5 4 3 3 3 3 3 4 3 3 3
10 9 6 4 3 4 2 6 6 4 4 5 5 5 5 6 8 8 8 8 8 7 8 7 7 7 6 6 5 4 4 4 3 3 3 5 5 5 4 4 3 4 3 3 2 2 2 2 2
6 5 5 5 2 3 5 6 5 3 5 5 5 5 6 7 9 8 9 9 8 7 7 8 7 7 7 6 5 5 5 4 3 3 3 4 5 5 3 4 4 4 3 3 3 2 2 2 1
4 4 2 6 4 6 7 6 5 4 5 6 6 7 8 9 9 10 10 9 9 9 9 9 8 7 7 5 4 4 4 4 4 3 3 5 4 5 4 4 4 4 3 3 3 2 2 1 2
8 6 1 9 5 3 5 6 5 4 5 7 8 9 10 11 11 10 10 10 10 10 10 9 8 8 7 5 4 4 4 4 4 3 4 4 5 5 5 4 4 4 4 4 4 3 2 2 1
8 7 3 7 4 1 3 5 6 4 5 6 8 9 10 10 10 10 10 10 10 10 10 10 9 8 7 5 5 4 4 3 4 3 4 4 4 4 4 5 4 5 4 4 5 4 2 2 2
6 6 6 2 3 3 4 4 7 5 5 6 7 8 9 9 11 10 10 9 9 10 10 10 10 9 8 7 5 5 4 3 3 4 3 3 3 3 3 4 4 4 5 4 5 5 5 3 3
5 6 4 2 4 4 6 2 7 5 5 6 8 8 8 9 9 8 9 9 10 10 9 10 10 10 9 7 6 6 5 4 5 4 3 3 3 3 3 4 4 4 4 5 5 5 4 5 4
5 3 5 6 8 7 6 3 7 5 4 7 7 8 8 8 9 9 9 9 10 9 9 9 10 10 9 8 7 6 5 5 4 4 4 3 2 2 2 2 2 3 3 5 5 5 5 4 4
3 6 8 8 7 7 2 2 6 4 6 7 7 7 8 7 8 8 8 7 8 8 8 8 9 9 9 8 7 7 7 7 6 6 5 3 2 2 2 2 1 2 2 4 4 5 6 5 5
5 7 5 5 6 2 3 2 7 6 5 5 6 7 7 6 6 7 7 7 7 8 8 8 8 8 9 9 8 8 7 7 6 6 5 4 3 2 3 2 2 2 2 3 4 4 5 5 5
5 5 6 6 4 2 4 4 7 6 4 3 4 5 6 6 5 6 7 6 7 7 8 8 9 8 9 9 8 8 7 5 4 5 4 4 3 3 3 3 2 2 2 2 3 3 4 4 4
6 4 4 6 9 5 5 8 8 4 3 4 5 5 5 6 6 6 6 6 6 7 7 7 8 8 8 9 8 7 8 6 6 6 5 4 3 4 4 3 2 1 1 1 3 3 3 3 4
3 6 5 5 6 5 2 5 4 4 4 4 5 5 5 6 5 5 5 6 5 5 5 6 6 7 7 8 8 7 7 7 6 6 6 6 5 5 4 4 3 3 1 0 1 2 2 3 3
3 3 3 4 2 4 3 4 5 4 3 3 4 5 5 5 4 4 3 4 4 5 5 5 6 6 7 7 7 8 7 7 7 7 7 6 6 6 5 5 4 3 2 1 1 1 2 2 2
3 5 5 5 5 2 1 4 5 4 3 2 3 4 4 4 3 3 3 3 4 4 5 5 6 6 6 6 7 7 7 8 8 8 8 7 7 6 6 5 4 4 4 3 2 1 2 2 2
Wind_Direction
220 223 225 249 252 76 58 56 57 45 48 53 50 62 70 56 54 84 152 125 117 117 124 130 125 122 120 119 119 119 118 118 120 121 120 116 113 106 97 87 79 73 69 71 68 64 63 60 53
245 221 229 244 316 69 61 59 59 52 58 68 61 58 64 61 69 94 115 106 119 123 134 129 130 128 126 125 125 124 122 120 120 123 124 121 118 111 105 97 96 90 79 79 76 75 70 64 56
253 237 249 246 58 63 67 63 64 57 51 70 75 59 48 47 70 95 108 120 117 120 119 121 133 132 131 133 134 134 132 129 129 129 129 129 127 124 119 107 103 95 88 84 84 82 80 70 54
238 232 261 58 73 60 60 66 69 65 54 55 69 70 62 50 77 100 114 118 113 117 117 127 134 137 140 144 146 147 149 151 152 148 147 143 143 150 146 134 119 107 98 91 89 90 92 80 55
236 285 10 77 77 66 59 55 64 68 57 61 76 83 72 60 76 100 112 110 116 118 123 137 144 150 155 157 160 167 172 175 177 177 176 176 180 180 169 159 144 133 118 104 99 99 105 92 58
271 60 44 87 84 69 57 50 51 58 55 49 77 90 77 57 62 85 100 107 113 121 128 136 155 163 169 172 178 184 189 193 196 198 200 202 204 198 189 181 171 159 149 134 125 128 138 145 241
282 251 140 97 84 68 61 53 50 53 46 33 51 89 81 43 32 66 83 88 101 113 126 146 160 173 179 181 187 194 199 205 207 208 209 210 212 214 211 204 195 186 174 166 167 175 188 207 234
294 325 44 59 84 70 64 64 59 57 54 38 40 64 63 24 24 47 54 56 59 71 90 125 152 172 183 186 194 198 202 207 210 214 216 216 219 222 219 212 201 198 196 195 196 203 211 222 234
286 36 47 62 87 70 60 72 74 69 67 60 57 63 53 26 36 39 37 35 33 29 28 41 57 52 180 190 189 193 202 208 211 216 220 221 224 218 212 217 194 195 200 204 206 212 219 227 231
46 70 54 57 77 82 60 44 50 69 52 44 44 45 40 36 37 36 34 28 22 14 10 17 13 7 353 333 165 194 199 196 206 214 207 211 225 226 214 195 187 194 201 206 211 218 225 232 227
54 84 82 71 83 100 87 58 36 72 52 38 32 29 32 38 38 34 30 27 19 10 7 6 3 360 354 346 326 240 213 195 211 224 212 208 224 216 199 172 179 193 202 208 207 214 226 225 224
82 60 67 67 63 74 78 78 61 57 58 51 46 35 32 33 33 29 23 17 11 11 5 356 355 349 344 343 331 298 278 241 230 230 227 204 212 226 223 196 184 188 194 205 195 208 218 224 221
104 96 87 86 85 85 85 83 78 61 60 62 50 45 36 31 23 22 21 14 6 6 1 358 349 345 340 333 319 315 292 285 282 272 255 218 200 216 229 227 195 197 196 192 198 208 228 219 226
119 120 112 106 99 94 94 85 74 56 45 56 48 45 34 29 17 17 18 8 1 357 351 350 343 340 333 329 316 298 284 261 259 266 271 260 219 216 221 224 215 205 221 204 190 205 235 224 218
131 135 129 127 131 137 116 74 62 49 44 42 33 40 34 28 16 21 14 1 356 350 344 346 334 338 333 325 317 310 291 276 252 240 253 265 258 238 228 220 213 205 219 229 208 214 221 211 200
179 170 143 130 156 162 209 80 61 34 34 42 27 29 38 33 19 23 10 358 352 345 340 339 335 338 329 322 307 295 289 281 271 256 244 252 253 249 246 225 217 214 212 213 201 217 217 206 201
214 228 158 143 128 110 87 92 79 45 25 26 28 25 29 28 18 22 14 360 347 343 341 340 342 338 328 320 307 294 288 282 267 256 248 254 257 249 239 235 226 217 211 202 203 194 201 197 201
304 294 163 130 92 88 95 108 97 59 35 20 21 20 24 19 12 19 12 1 354 353 351 347 345 338 329 320 314 308 301 296 285 270 257 252 251 247 227 228 226 221 209 197 192 187 202 186 182
316 311 47 102 99 100 118 120 106 67 49 24 20 18 18 11 5 17 11 7 1 357 354 348 346 343 339 330 320 313 305 303 294 285 277 272 260 249 229 221 216 219 213 203 194 188 194 205 175
304 309 86 108 103 310 156 140 121 88 62 41 24 22 18 6 0 11 10 7 1 359 355 347 345 343 338 326 318 300 295 293 286 282 280 273 260 249 241 228 217 210 212 209 195 185 176 205 192
322 358 -0 78 139 225 229 180 145 127 85 56 35 29 19 9 6 8 7 4 2 2 356 348 347 348 342 335 330 323 316 311 305 298 287 280 274 258 242 239 229 216 206 208 202 191 180 192 212
346 36 342 293 241 218 209 216 144 129 83 48 34 27 21 16 8 6 7 3 1 0 355 352 351 350 347 344 342 337 330 319 310 312 308 305 295 279 256 245 228 220 209 202 202 196 189 183 205
3 333 282 259 254 262 221 253 131 125 55 36 28 23 22 14 7 7 9 4 359 358 357 356 353 354 351 350 348 346 339 325 318 318 314 313 311 299 287 267 239 222 212 202 196 195 194 192 197
290 256 243 241 251 251 192 273 101 63 34 16 16 20 21 14 10 7 9 6 357 358 0 358 358 354 352 352 356 355 345 339 336 333 326 321 314 311 320 305 272 238 225 209 197 194 192 193 194
260 290 270 228 215 131 77 81 84 73 50 18 13 19 16 19 17 10 8 5 358 359 1 357 360 357 356 355 359 356 351 343 339 336 334 333 329 327 321 314 280 253 236 211 194 191 190 193 192
308 298 317 318 332 107 151 86 102 94 85 42 33 34 23 21 17 15 12 4 357 359 1 360 1 1 360 358 357 354 354 346 338 342 348 352 344 331 328 327 301 267 233 206 189 191 192 195 198
312 330 344 300 288 276 128 118 128 124 83 44 31 29 24 17 16 17 12 6 2 2 4 4 4 5 2 1 358 360 0 358 355 356 357 356 350 345 353 352 344 321 249 197 183 187 189 187 194
306 323 299 288 332 323 109 104 102 88 47 24 24 26 20 15 17 18 13 7 6 4 4 4 8 7 3 3 3 5 1 2 2 5 5 2 357 356 357 4 10 9 12 131 149 155 171 169 179
308 265 312 295 283 320 353 75 74 82 67 26 26 28 16 13 16 17 16 10 6 9 8 5 13 12 7 5 4 3 2 9 13 12 5 4 2 3 6 11 12 12 18 30 88 115 132 149 153
332 343 334 324 345 321 305 105 98 102 103 70 43 25 13 8 18 30 22 16 9 9 10 14 17 16 12 7 6 6 6 13 16 14 8 7 8 7 10 14 17 27 33 35 51 89 125 138 148